Вернуться в каталог

ONEWEB-0057

АктивенСвязьPO
NORAD 45160·PAYLOAD·🇬🇧 United Kingdom

Запущен Feb 6, 2020 с Baikonur Cosmodrome

Loading…

Ближайшие Пролёты (ближайшие 24 часа)

TLE

СвежийSource: CelesTrak SupGP

Эпоха: Sep 14, 2026, 14:02 UTC

1 45160C 20008AF  26257.58523565  .00000030  00000+0  86355-4 0  2577
2 45160  87.8911  18.4759 0002108 113.3234 355.5553 13.10371661    15

Отслеживайте ONEWEB-0057 в реальном времени с AllMySat

Download on the App Store